owner,sensor,date,latitude,longitude,vertical_datum,mass_concentration_of_oxygen_in_sea_water,qcFlag 
TCOON,ioos:station:TCOON:127:1,2019-07-01T00:30:00Z,28.2598,-96.7737,1.0,7.72,11111222 
TCOON,ioos:station:TCOON:127:1,2019-07-01T01:30:00Z,28.2598,-96.7737,1.0,7.61,11111222 
TCOON,ioos:station:TCOON:127:1,2019-07-01T02:30:00Z,28.2598,-96.7737,1.0,7.44,11111222 
TCOON,ioos:station:TCOON:127:1,2019-07-01T03:30:00Z,28.2598,-96.7737,1.0,7.35,11111222 
TCOON,ioos:station:TCOON:127:1,2019-07-01T04:30:00Z,28.2598,-96.7737,1.0,7.21,11111222 
TCOON,ioos:station:TCOON:127:1,2019-07-01T05:30:00Z,28.2598,-96.7737,1.0,7.1,11111222 
TCOON,ioos:station:TCOON:127:1,2019-07-01T06:30:00Z,28.2598,-96.7737,1.0,6.91,11111222 
TCOON,ioos:station:TCOON:127:1,2019-07-01T07:30:00Z,28.2598,-96.7737,1.0,6.98,11111222 
TCOON,ioos:station:TCOON:127:1,2019-07-01T08:30:00Z,28.2598,-96.7737,1.0,6.94,11111222 
TCOON,ioos:station:TCOON:127:1,2019-07-01T09:30:00Z,28.2598,-96.7737,1.0,6.89,11111222 
TCOON,ioos:station:TCOON:127:1,2019-07-01T10:30:00Z,28.2598,-96.7737,1.0,6.8,11111222 
TCOON,ioos:station:TCOON:127:1,2019-07-01T11:30:00Z,28.2598,-96.7737,1.0,6.73,11111222 
TCOON,ioos:station:TCOON:127:1,2019-07-01T12:30:00Z,28.2598,-96.7737,1.0,6.67,11111222 
TCOON,ioos:station:TCOON:127:1,2019-07-01T13:30:00Z,28.2598,-96.7737,1.0,6.66,11111222 
TCOON,ioos:station:TCOON:127:1,2019-07-01T16:00:00Z,28.2598,-96.7737,1.0,6.84,11111222 
TCOON,ioos:station:TCOON:127:1,2019-07-01T16:30:00Z,28.2598,-96.7737,1.0,6.93,11111222 
TCOON,ioos:station:TCOON:127:1,2019-07-01T17:30:00Z,28.2598,-96.7737,1.0,7.18,11111222 
TCOON,ioos:station:TCOON:127:1,2019-07-01T18:30:00Z,28.2598,-96.7737,1.0,7.54,11111222 
TCOON,ioos:station:TCOON:127:1,2019-07-01T19:30:00Z,28.2598,-96.7737,1.0,7.84,11111222 
TCOON,ioos:station:TCOON:127:1,2019-07-01T20:30:00Z,28.2598,-96.7737,1.0,8.05,11111222 
TCOON,ioos:station:TCOON:127:1,2019-07-01T21:30:00Z,28.2598,-96.7737,1.0,8.21,11111222 
TCOON,ioos:station:TCOON:127:1,2019-07-01T22:30:00Z,28.2598,-96.7737,1.0,8.25,11111222 
TCOON,ioos:station:TCOON:127:1,2019-07-01T23:30:00Z,28.2598,-96.7737,1.0,8.19,11111222 
TCOON,ioos:station:TCOON:127:1,2019-07-02T00:30:00Z,28.2598,-96.7737,1.0,8.11,11111222 
TCOON,ioos:station:TCOON:127:1,2019-07-02T01:30:00Z,28.2598,-96.7737,1.0,7.96,11111222 
TCOON,ioos:station:TCOON:127:1,2019-07-02T02:30:00Z,28.2598,-96.7737,1.0,7.82,11111222 
TCOON,ioos:station:TCOON:127:1,2019-07-02T03:30:00Z,28.2598,-96.7737,1.0,7.62,11111222 
TCOON,ioos:station:TCOON:127:1,2019-07-02T04:30:00Z,28.2598,-96.7737,1.0,7.47,11111222 
TCOON,ioos:station:TCOON:127:1,2019-07-02T05:30:00Z,28.2598,-96.7737,1.0,7.34,11111222 
TCOON,ioos:station:TCOON:127:1,2019-07-02T06:30:00Z,28.2598,-96.7737,1.0,7.24,11111222 
TCOON,ioos:station:TCOON:127:1,2019-07-02T07:30:00Z,28.2598,-96.7737,1.0,7.12,11111222 
TCOON,ioos:station:TCOON:127:1,2019-07-02T08:30:00Z,28.2598,-96.7737,1.0,7.14,11111222 
TCOON,ioos:station:TCOON:127:1,2019-07-02T09:30:00Z,28.2598,-96.7737,1.0,7.09,11111222 
TCOON,ioos:station:TCOON:127:1,2019-07-02T10:30:00Z,28.2598,-96.7737,1.0,6.8,11111222 
TCOON,ioos:station:TCOON:127:1,2019-07-02T11:30:00Z,28.2598,-96.7737,1.0,6.61,11111222 
TCOON,ioos:station:TCOON:127:1,2019-07-02T12:30:00Z,28.2598,-96.7737,1.0,6.63,11111222 
TCOON,ioos:station:TCOON:127:1,2019-07-02T13:30:00Z,28.2598,-96.7737,1.0,6.5,11111222 
TCOON,ioos:station:TCOON:127:1,2019-07-02T14:30:00Z,28.2598,-96.7737,1.0,6.53,11111222 
TCOON,ioos:station:TCOON:127:1,2019-07-02T15:30:00Z,28.2598,-96.7737,1.0,6.5,11111222 
TCOON,ioos:station:TCOON:127:1,2019-07-02T16:30:00Z,28.2598,-96.7737,1.0,6.63,11111222 
TCOON,ioos:station:TCOON:127:1,2019-07-02T17:30:00Z,28.2598,-96.7737,1.0,7.04,11111222 
TCOON,ioos:station:TCOON:127:1,2019-07-02T18:30:00Z,28.2598,-96.7737,1.0,7.16,11111222 
TCOON,ioos:station:TCOON:127:1,2019-07-02T19:30:00Z,28.2598,-96.7737,1.0,7.4,11111222 
TCOON,ioos:station:TCOON:127:1,2019-07-02T20:30:00Z,28.2598,-96.7737,1.0,7.53,11111222 
TCOON,ioos:station:TCOON:127:1,2019-07-02T21:30:00Z,28.2598,-96.7737,1.0,7.33,11111222 
TCOON,ioos:station:TCOON:127:1,2019-07-02T22:30:00Z,28.2598,-96.7737,1.0,7.19,11111222 
TCOON,ioos:station:TCOON:127:1,2019-07-02T23:30:00Z,28.2598,-96.7737,1.0,6.84,11111222 
TCOON,ioos:station:TCOON:127:1,2019-07-03T00:30:00Z,28.2598,-96.7737,1.0,6.9,11111222 
TCOON,ioos:station:TCOON:127:1,2019-07-03T01:30:00Z,28.2598,-96.7737,1.0,6.85,11111222 
TCOON,ioos:station:TCOON:127:1,2019-07-03T02:30:00Z,28.2598,-96.7737,1.0,6.87,11111222 
TCOON,ioos:station:TCOON:127:1,2019-07-03T03:30:00Z,28.2598,-96.7737,1.0,6.74,11111222 
TCOON,ioos:station:TCOON:127:1,2019-07-03T04:30:00Z,28.2598,-96.7737,1.0,6.67,11111222 
TCOON,ioos:station:TCOON:127:1,2019-07-03T05:30:00Z,28.2598,-96.7737,1.0,6.62,11111222 
TCOON,ioos:station:TCOON:127:1,2019-07-03T06:30:00Z,28.2598,-96.7737,1.0,6.54,11111222 
TCOON,ioos:station:TCOON:127:1,2019-07-03T07:30:00Z,28.2598,-96.7737,1.0,6.35,11111222 
TCOON,ioos:station:TCOON:127:1,2019-07-03T08:30:00Z,28.2598,-96.7737,1.0,6.43,11111222 
TCOON,ioos:station:TCOON:127:1,2019-07-03T09:30:00Z,28.2598,-96.7737,1.0,6.43,11111222 
TCOON,ioos:station:TCOON:127:1,2019-07-03T10:30:00Z,28.2598,-96.7737,1.0,6.25,11111222 
TCOON,ioos:station:TCOON:127:1,2019-07-03T11:30:00Z,28.2598,-96.7737,1.0,6.16,11111222 
TCOON,ioos:station:TCOON:127:1,2019-07-03T12:30:00Z,28.2598,-96.7737,1.0,6.16,11111222 
TCOON,ioos:station:TCOON:127:1,2019-07-03T13:30:00Z,28.2598,-96.7737,1.0,6.23,11111222 
TCOON,ioos:station:TCOON:127:1,2019-07-03T14:30:00Z,28.2598,-96.7737,1.0,5.98,11111222 
TCOON,ioos:station:TCOON:127:1,2019-07-03T15:30:00Z,28.2598,-96.7737,1.0,6.16,11111222 
TCOON,ioos:station:TCOON:127:1,2019-07-03T16:30:00Z,28.2598,-96.7737,1.0,6.08,11111222 
TCOON,ioos:station:TCOON:127:1,2019-07-03T17:30:00Z,28.2598,-96.7737,1.0,6.31,11111222 
TCOON,ioos:station:TCOON:127:1,2019-07-03T18:30:00Z,28.2598,-96.7737,1.0,6.34,11111222 
TCOON,ioos:station:TCOON:127:1,2019-07-03T19:30:00Z,28.2598,-96.7737,1.0,6.58,11111222 
TCOON,ioos:station:TCOON:127:1,2019-07-03T20:30:00Z,28.2598,-96.7737,1.0,6.63,11111222 
TCOON,ioos:station:TCOON:127:1,2019-07-03T21:30:00Z,28.2598,-96.7737,1.0,6.91,11111222 
TCOON,ioos:station:TCOON:127:1,2019-07-03T22:30:00Z,28.2598,-96.7737,1.0,7.04,11111222 
TCOON,ioos:station:TCOON:127:1,2019-07-03T23:30:00Z,28.2598,-96.7737,1.0,6.57,11111222 
TCOON,ioos:station:TCOON:127:1,2019-07-04T00:30:00Z,28.2598,-96.7737,1.0,6.28,11111222 
TCOON,ioos:station:TCOON:127:1,2019-07-04T01:30:00Z,28.2598,-96.7737,1.0,6.13,11111222 
TCOON,ioos:station:TCOON:127:1,2019-07-04T02:30:00Z,28.2598,-96.7737,1.0,6.14,11111222 
TCOON,ioos:station:TCOON:127:1,2019-07-04T03:30:00Z,28.2598,-96.7737,1.0,5.78,11111222 
TCOON,ioos:station:TCOON:127:1,2019-07-04T04:30:00Z,28.2598,-96.7737,1.0,6.15,11111222 
TCOON,ioos:station:TCOON:127:1,2019-07-04T05:30:00Z,28.2598,-96.7737,1.0,6.42,11111222 
TCOON,ioos:station:TCOON:127:1,2019-07-04T06:30:00Z,28.2598,-96.7737,1.0,5.86,11111222 
TCOON,ioos:station:TCOON:127:1,2019-07-04T07:30:00Z,28.2598,-96.7737,1.0,5.58,11111222 
TCOON,ioos:station:TCOON:127:1,2019-07-04T08:30:00Z,28.2598,-96.7737,1.0,5.3,11111222 
TCOON,ioos:station:TCOON:127:1,2019-07-04T09:30:00Z,28.2598,-96.7737,1.0,5.43,11111222 
TCOON,ioos:station:TCOON:127:1,2019-07-04T10:30:00Z,28.2598,-96.7737,1.0,5.4,11111222 
TCOON,ioos:station:TCOON:127:1,2019-07-04T11:30:00Z,28.2598,-96.7737,1.0,5.3,11111222 
TCOON,ioos:station:TCOON:127:1,2019-07-04T12:30:00Z,28.2598,-96.7737,1.0,5.18,11111222 
TCOON,ioos:station:TCOON:127:1,2019-07-04T13:30:00Z,28.2598,-96.7737,1.0,4.5,11111222 
TCOON,ioos:station:TCOON:127:1,2019-07-04T14:30:00Z,28.2598,-96.7737,1.0,5.24,11111222 
TCOON,ioos:station:TCOON:127:1,2019-07-04T15:30:00Z,28.2598,-96.7737,1.0,4.48,11111222 
TCOON,ioos:station:TCOON:127:1,2019-07-04T16:30:00Z,28.2598,-96.7737,1.0,4.9,11111222 
TCOON,ioos:station:TCOON:127:1,2019-07-04T17:30:00Z,28.2598,-96.7737,1.0,5.17,11111222 
TCOON,ioos:station:TCOON:127:1,2019-07-04T18:30:00Z,28.2598,-96.7737,1.0,4.84,11111222 
TCOON,ioos:station:TCOON:127:1,2019-07-04T19:30:00Z,28.2598,-96.7737,1.0,5.29,11111222 
TCOON,ioos:station:TCOON:127:1,2019-07-04T20:30:00Z,28.2598,-96.7737,1.0,5.99,11111222 
TCOON,ioos:station:TCOON:127:1,2019-07-04T21:30:00Z,28.2598,-96.7737,1.0,5.3,11111222 
TCOON,ioos:station:TCOON:127:1,2019-07-04T22:30:00Z,28.2598,-96.7737,1.0,4.9,11111222 
TCOON,ioos:station:TCOON:127:1,2019-07-04T23:30:00Z,28.2598,-96.7737,1.0,4.92,11111222 
TCOON,ioos:station:TCOON:127:1,2019-07-05T00:30:00Z,28.2598,-96.7737,1.0,3.86,11111222 
TCOON,ioos:station:TCOON:127:1,2019-07-05T01:30:00Z,28.2598,-96.7737,1.0,4.42,11111222 
TCOON,ioos:station:TCOON:127:1,2019-07-05T02:30:00Z,28.2598,-96.7737,1.0,4.16,11111222 
TCOON,ioos:station:TCOON:127:1,2019-07-05T03:30:00Z,28.2598,-96.7737,1.0,3.84,11111222 
TCOON,ioos:station:TCOON:127:1,2019-07-05T04:30:00Z,28.2598,-96.7737,1.0,3.89,11111222 
TCOON,ioos:station:TCOON:127:1,2019-07-05T06:30:00Z,28.2598,-96.7737,1.0,4.42,11111222 
TCOON,ioos:station:TCOON:127:1,2019-07-05T07:30:00Z,28.2598,-96.7737,1.0,4.14,11111222 
TCOON,ioos:station:TCOON:127:1,2019-07-05T08:30:00Z,28.2598,-96.7737,1.0,3.94,11111222 
TCOON,ioos:station:TCOON:127:1,2019-07-05T09:30:00Z,28.2598,-96.7737,1.0,3.91,11111222 
TCOON,ioos:station:TCOON:127:1,2019-07-05T10:30:00Z,28.2598,-96.7737,1.0,4.08,11111222 
TCOON,ioos:station:TCOON:127:1,2019-07-05T11:30:00Z,28.2598,-96.7737,1.0,4.0,11111222 
TCOON,ioos:station:TCOON:127:1,2019-07-05T12:30:00Z,28.2598,-96.7737,1.0,4.09,11111222 
TCOON,ioos:station:TCOON:127:1,2019-07-05T13:30:00Z,28.2598,-96.7737,1.0,3.71,11111222 
TCOON,ioos:station:TCOON:127:1,2019-07-05T14:30:00Z,28.2598,-96.7737,1.0,3.58,11111222 
TCOON,ioos:station:TCOON:127:1,2019-07-05T15:30:00Z,28.2598,-96.7737,1.0,3.84,11111222 
TCOON,ioos:station:TCOON:127:1,2019-07-05T16:30:00Z,28.2598,-96.7737,1.0,3.35,11111222 
TCOON,ioos:station:TCOON:127:1,2019-07-05T17:30:00Z,28.2598,-96.7737,1.0,2.66,11111222 
TCOON,ioos:station:TCOON:127:1,2019-07-05T18:30:00Z,28.2598,-96.7737,1.0,4.24,11111222 
TCOON,ioos:station:TCOON:127:1,2019-07-05T19:30:00Z,28.2598,-96.7737,1.0,3.71,11111222 
TCOON,ioos:station:TCOON:127:1,2019-07-05T20:30:00Z,28.2598,-96.7737,1.0,4.2,11111222 
TCOON,ioos:station:TCOON:127:1,2019-07-05T21:30:00Z,28.2598,-96.7737,1.0,4.23,11111222 
TCOON,ioos:station:TCOON:127:1,2019-07-05T22:30:00Z,28.2598,-96.7737,1.0,2.88,11111222 
TCOON,ioos:station:TCOON:127:1,2019-07-05T23:30:00Z,28.2598,-96.7737,1.0,3.18,11111222 
TCOON,ioos:station:TCOON:127:1,2019-07-06T00:30:00Z,28.2598,-96.7737,1.0,4.16,11111222 
TCOON,ioos:station:TCOON:127:1,2019-07-06T01:30:00Z,28.2598,-96.7737,1.0,3.17,11111222 
TCOON,ioos:station:TCOON:127:1,2019-07-06T02:30:00Z,28.2598,-96.7737,1.0,2.55,11111222 
TCOON,ioos:station:TCOON:127:1,2019-07-06T03:30:00Z,28.2598,-96.7737,1.0,2.22,11111222 
TCOON,ioos:station:TCOON:127:1,2019-07-06T04:30:00Z,28.2598,-96.7737,1.0,1.94,11111222 
TCOON,ioos:station:TCOON:127:1,2019-07-06T05:30:00Z,28.2598,-96.7737,1.0,1.58,11111222 
TCOON,ioos:station:TCOON:127:1,2019-07-06T06:30:00Z,28.2598,-96.7737,1.0,2.04,11111222 
TCOON,ioos:station:TCOON:127:1,2019-07-06T07:30:00Z,28.2598,-96.7737,1.0,1.84,11111222 
TCOON,ioos:station:TCOON:127:1,2019-07-06T08:30:00Z,28.2598,-96.7737,1.0,1.54,11111222 
TCOON,ioos:station:TCOON:127:1,2019-07-06T09:30:00Z,28.2598,-96.7737,1.0,1.04,11111222 
TCOON,ioos:station:TCOON:127:1,2019-07-06T10:30:00Z,28.2598,-96.7737,1.0,1.3,11111222 
TCOON,ioos:station:TCOON:127:1,2019-07-06T11:30:00Z,28.2598,-96.7737,1.0,1.08,11111222 
TCOON,ioos:station:TCOON:127:1,2019-07-06T12:30:00Z,28.2598,-96.7737,1.0,1.08,11111222 
TCOON,ioos:station:TCOON:127:1,2019-07-06T13:30:00Z,28.2598,-96.7737,1.0,1.21,11111222 
TCOON,ioos:station:TCOON:127:1,2019-07-06T14:30:00Z,28.2598,-96.7737,1.0,1.08,11111222 
TCOON,ioos:station:TCOON:127:1,2019-07-06T15:30:00Z,28.2598,-96.7737,1.0,1.0,11111222 
TCOON,ioos:station:TCOON:127:1,2019-07-06T16:30:00Z,28.2598,-96.7737,1.0,1.17,11111222 
TCOON,ioos:station:TCOON:127:1,2019-07-06T17:30:00Z,28.2598,-96.7737,1.0,1.26,11111222 
TCOON,ioos:station:TCOON:127:1,2019-07-06T18:30:00Z,28.2598,-96.7737,1.0,0.91,11111222 
TCOON,ioos:station:TCOON:127:1,2019-07-06T19:30:00Z,28.2598,-96.7737,1.0,1.3,11111222 
TCOON,ioos:station:TCOON:127:1,2019-07-06T20:30:00Z,28.2598,-96.7737,1.0,1.31,11111222 
TCOON,ioos:station:TCOON:127:1,2019-07-06T21:30:00Z,28.2598,-96.7737,1.0,1.41,11111222 
TCOON,ioos:station:TCOON:127:1,2019-07-06T22:30:00Z,28.2598,-96.7737,1.0,1.43,11111222 
TCOON,ioos:station:TCOON:127:1,2019-07-06T23:30:00Z,28.2598,-96.7737,1.0,1.56,11111222 
TCOON,ioos:station:TCOON:127:1,2019-07-07T00:30:00Z,28.2598,-96.7737,1.0,1.58,11111222 
TCOON,ioos:station:TCOON:127:1,2019-07-07T01:30:00Z,28.2598,-96.7737,1.0,1.78,11111222 
TCOON,ioos:station:TCOON:127:1,2019-07-07T02:30:00Z,28.2598,-96.7737,1.0,1.66,11111222 
TCOON,ioos:station:TCOON:127:1,2019-07-07T03:30:00Z,28.2598,-96.7737,1.0,1.43,11111222 
TCOON,ioos:station:TCOON:127:1,2019-07-07T04:30:00Z,28.2598,-96.7737,1.0,1.27,11111222 
TCOON,ioos:station:TCOON:127:1,2019-07-07T05:30:00Z,28.2598,-96.7737,1.0,1.04,11111222 
TCOON,ioos:station:TCOON:127:1,2019-07-07T06:30:00Z,28.2598,-96.7737,1.0,1.08,11111222 
TCOON,ioos:station:TCOON:127:1,2019-07-07T07:30:00Z,28.2598,-96.7737,1.0,1.0,11111222 
TCOON,ioos:station:TCOON:127:1,2019-07-07T08:30:00Z,28.2598,-96.7737,1.0,0.86,11111222 
TCOON,ioos:station:TCOON:127:1,2019-07-07T09:30:00Z,28.2598,-96.7737,1.0,0.77,11111222 
TCOON,ioos:station:TCOON:127:1,2019-07-07T10:30:00Z,28.2598,-96.7737,1.0,0.74,11111222 
TCOON,ioos:station:TCOON:127:1,2019-07-07T11:30:00Z,28.2598,-96.7737,1.0,0.57,11111222 
TCOON,ioos:station:TCOON:127:1,2019-07-07T12:30:00Z,28.2598,-96.7737,1.0,0.58,11111222 
TCOON,ioos:station:TCOON:127:1,2019-07-07T13:30:00Z,28.2598,-96.7737,1.0,0.62,11111222 
TCOON,ioos:station:TCOON:127:1,2019-07-07T14:30:00Z,28.2598,-96.7737,1.0,0.63,11111222 
TCOON,ioos:station:TCOON:127:1,2019-07-07T15:30:00Z,28.2598,-96.7737,1.0,0.59,11111222 
TCOON,ioos:station:TCOON:127:1,2019-07-07T16:30:00Z,28.2598,-96.7737,1.0,0.65,11111222 
TCOON,ioos:station:TCOON:127:1,2019-07-07T17:30:00Z,28.2598,-96.7737,1.0,0.7,11111222 
TCOON,ioos:station:TCOON:127:1,2019-07-07T18:30:00Z,28.2598,-96.7737,1.0,0.78,11111222 
TCOON,ioos:station:TCOON:127:1,2019-07-07T19:30:00Z,28.2598,-96.7737,1.0,0.82,11111222 
TCOON,ioos:station:TCOON:127:1,2019-07-07T20:30:00Z,28.2598,-96.7737,1.0,1.0,11111222 
TCOON,ioos:station:TCOON:127:1,2019-07-07T21:30:00Z,28.2598,-96.7737,1.0,0.96,11111222 
TCOON,ioos:station:TCOON:127:1,2019-07-07T22:30:00Z,28.2598,-96.7737,1.0,0.89,11111222 
TCOON,ioos:station:TCOON:127:1,2019-07-07T23:30:00Z,28.2598,-96.7737,1.0,0.77,11111222 
TCOON,ioos:station:TCOON:127:1,2019-07-08T00:30:00Z,28.2598,-96.7737,1.0,0.85,11111222 
TCOON,ioos:station:TCOON:127:1,2019-07-08T01:30:00Z,28.2598,-96.7737,1.0,0.68,11111222 
TCOON,ioos:station:TCOON:127:1,2019-07-08T02:30:00Z,28.2598,-96.7737,1.0,0.66,11111222 
TCOON,ioos:station:TCOON:127:1,2019-07-08T03:30:00Z,28.2598,-96.7737,1.0,0.63,11111222 
TCOON,ioos:station:TCOON:127:1,2019-07-08T04:30:00Z,28.2598,-96.7737,1.0,0.59,11111222 
TCOON,ioos:station:TCOON:127:1,2019-07-08T05:30:00Z,28.2598,-96.7737,1.0,0.8,11111222 
TCOON,ioos:station:TCOON:127:1,2019-07-08T06:30:00Z,28.2598,-96.7737,1.0,0.73,11111222 
TCOON,ioos:station:TCOON:127:1,2019-07-08T07:30:00Z,28.2598,-96.7737,1.0,0.68,11111222 
TCOON,ioos:station:TCOON:127:1,2019-07-08T08:30:00Z,28.2598,-96.7737,1.0,0.65,11111222 
TCOON,ioos:station:TCOON:127:1,2019-07-08T09:30:00Z,28.2598,-96.7737,1.0,0.64,11111222 
TCOON,ioos:station:TCOON:127:1,2019-07-08T10:30:00Z,28.2598,-96.7737,1.0,0.61,11111222 
TCOON,ioos:station:TCOON:127:1,2019-07-08T11:30:00Z,28.2598,-96.7737,1.0,0.61,11111222 
TCOON,ioos:station:TCOON:127:1,2019-07-08T12:30:00Z,28.2598,-96.7737,1.0,0.64,11111222 
TCOON,ioos:station:TCOON:127:1,2019-07-08T13:30:00Z,28.2598,-96.7737,1.0,0.56,11111222 
TCOON,ioos:station:TCOON:127:1,2019-07-08T14:30:00Z,28.2598,-96.7737,1.0,0.56,11111222 
TCOON,ioos:station:TCOON:127:1,2019-07-08T15:30:00Z,28.2598,-96.7737,1.0,0.59,11111222 
TCOON,ioos:station:TCOON:127:1,2019-07-08T16:30:00Z,28.2598,-96.7737,1.0,0.58,11111222 
TCOON,ioos:station:TCOON:127:1,2019-07-08T17:30:00Z,28.2598,-96.7737,1.0,0.55,11111222 
TCOON,ioos:station:TCOON:127:1,2019-07-08T18:30:00Z,28.2598,-96.7737,1.0,0.63,11111222 
TCOON,ioos:station:TCOON:127:1,2019-07-08T19:30:00Z,28.2598,-96.7737,1.0,0.75,11111222 
TCOON,ioos:station:TCOON:127:1,2019-07-08T20:30:00Z,28.2598,-96.7737,1.0,0.85,11111222 
TCOON,ioos:station:TCOON:127:1,2019-07-08T21:30:00Z,28.2598,-96.7737,1.0,0.96,11111222 
TCOON,ioos:station:TCOON:127:1,2019-07-08T22:30:00Z,28.2598,-96.7737,1.0,1.04,11111222 
TCOON,ioos:station:TCOON:127:1,2019-07-08T23:30:00Z,28.2598,-96.7737,1.0,1.0,11111222 
TCOON,ioos:station:TCOON:127:1,2019-07-09T00:30:00Z,28.2598,-96.7737,1.0,0.84,11111222 
TCOON,ioos:station:TCOON:127:1,2019-07-09T01:30:00Z,28.2598,-96.7737,1.0,0.87,11111222 
TCOON,ioos:station:TCOON:127:1,2019-07-09T02:30:00Z,28.2598,-96.7737,1.0,0.83,11111222 
TCOON,ioos:station:TCOON:127:1,2019-07-09T03:30:00Z,28.2598,-96.7737,1.0,0.99,11111222 
TCOON,ioos:station:TCOON:127:1,2019-07-09T04:30:00Z,28.2598,-96.7737,1.0,0.87,11111222 
TCOON,ioos:station:TCOON:127:1,2019-07-09T05:30:00Z,28.2598,-96.7737,1.0,1.29,11111222 
TCOON,ioos:station:TCOON:127:1,2019-07-09T06:30:00Z,28.2598,-96.7737,1.0,1.06,11111222 
TCOON,ioos:station:TCOON:127:1,2019-07-09T07:30:00Z,28.2598,-96.7737,1.0,0.96,11111222 
TCOON,ioos:station:TCOON:127:1,2019-07-09T08:30:00Z,28.2598,-96.7737,1.0,0.86,11111222 
TCOON,ioos:station:TCOON:127:1,2019-07-09T09:30:00Z,28.2598,-96.7737,1.0,0.86,11111222 
TCOON,ioos:station:TCOON:127:1,2019-07-09T10:30:00Z,28.2598,-96.7737,1.0,0.86,11111222 
TCOON,ioos:station:TCOON:127:1,2019-07-09T11:30:00Z,28.2598,-96.7737,1.0,0.79,11111222 
TCOON,ioos:station:TCOON:127:1,2019-07-09T12:30:00Z,28.2598,-96.7737,1.0,0.78,11111222 
TCOON,ioos:station:TCOON:127:1,2019-07-09T13:30:00Z,28.2598,-96.7737,1.0,1.17,11111222 
TCOON,ioos:station:TCOON:127:1,2019-07-09T14:30:00Z,28.2598,-96.7737,1.0,0.85,11111222 
TCOON,ioos:station:TCOON:127:1,2019-07-09T15:30:00Z,28.2598,-96.7737,1.0,0.98,11111222 
TCOON,ioos:station:TCOON:127:1,2019-07-09T16:30:00Z,28.2598,-96.7737,1.0,1.04,11111222 
TCOON,ioos:station:TCOON:127:1,2019-07-09T17:30:00Z,28.2598,-96.7737,1.0,0.99,11111222 
TCOON,ioos:station:TCOON:127:1,2019-07-09T18:30:00Z,28.2598,-96.7737,1.0,1.15,11111222 
TCOON,ioos:station:TCOON:127:1,2019-07-09T19:30:00Z,28.2598,-96.7737,1.0,1.14,11111222 
TCOON,ioos:station:TCOON:127:1,2019-07-09T20:30:00Z,28.2598,-96.7737,1.0,1.16,11111222 
TCOON,ioos:station:TCOON:127:1,2019-07-09T21:30:00Z,28.2598,-96.7737,1.0,1.24,11111222 
TCOON,ioos:station:TCOON:127:1,2019-07-09T22:30:00Z,28.2598,-96.7737,1.0,1.26,11111222 
TCOON,ioos:station:TCOON:127:1,2019-07-09T23:30:00Z,28.2598,-96.7737,1.0,1.33,11111222 
TCOON,ioos:station:TCOON:127:1,2019-07-10T00:30:00Z,28.2598,-96.7737,1.0,1.39,11111222 
TCOON,ioos:station:TCOON:127:1,2019-07-10T01:30:00Z,28.2598,-96.7737,1.0,1.29,11111222 
TCOON,ioos:station:TCOON:127:1,2019-07-10T02:30:00Z,28.2598,-96.7737,1.0,1.27,11111222 
TCOON,ioos:station:TCOON:127:1,2019-07-10T03:30:00Z,28.2598,-96.7737,1.0,1.14,11111222 
TCOON,ioos:station:TCOON:127:1,2019-07-10T04:30:00Z,28.2598,-96.7737,1.0,1.23,11111222 
TCOON,ioos:station:TCOON:127:1,2019-07-10T05:30:00Z,28.2598,-96.7737,1.0,1.15,11111222 
TCOON,ioos:station:TCOON:127:1,2019-07-10T06:30:00Z,28.2598,-96.7737,1.0,1.16,11111222 
TCOON,ioos:station:TCOON:127:1,2019-07-10T07:30:00Z,28.2598,-96.7737,1.0,0.99,11111222 
TCOON,ioos:station:TCOON:127:1,2019-07-10T08:30:00Z,28.2598,-96.7737,1.0,1.04,11111222 
TCOON,ioos:station:TCOON:127:1,2019-07-10T09:30:00Z,28.2598,-96.7737,1.0,0.95,11111222 
TCOON,ioos:station:TCOON:127:1,2019-07-10T10:30:00Z,28.2598,-96.7737,1.0,0.9,11111222 
TCOON,ioos:station:TCOON:127:1,2019-07-10T11:30:00Z,28.2598,-96.7737,1.0,0.82,11111222 
TCOON,ioos:station:TCOON:127:1,2019-07-10T12:30:00Z,28.2598,-96.7737,1.0,0.64,11111222 
TCOON,ioos:station:TCOON:127:1,2019-07-10T13:30:00Z,28.2598,-96.7737,1.0,0.79,11111222 
TCOON,ioos:station:TCOON:127:1,2019-07-10T14:30:00Z,28.2598,-96.7737,1.0,0.86,11111222 
TCOON,ioos:station:TCOON:127:1,2019-07-10T15:30:00Z,28.2598,-96.7737,1.0,0.94,11111222 
TCOON,ioos:station:TCOON:127:1,2019-07-10T16:30:00Z,28.2598,-96.7737,1.0,0.86,11111222 
TCOON,ioos:station:TCOON:127:1,2019-07-10T17:30:00Z,28.2598,-96.7737,1.0,0.88,11111222 
TCOON,ioos:station:TCOON:127:1,2019-07-10T18:30:00Z,28.2598,-96.7737,1.0,1.11,11111222 
TCOON,ioos:station:TCOON:127:1,2019-07-10T20:00:00Z,28.2598,-96.7737,1.0,1.59,11111222 
TCOON,ioos:station:TCOON:127:1,2019-07-10T20:30:00Z,28.2598,-96.7737,1.0,1.79,11111222 
TCOON,ioos:station:TCOON:127:1,2019-07-10T21:30:00Z,28.2598,-96.7737,1.0,1.7,11111222 
TCOON,ioos:station:TCOON:127:1,2019-07-10T22:30:00Z,28.2598,-96.7737,1.0,1.8,11111222 
TCOON,ioos:station:TCOON:127:1,2019-07-10T23:30:00Z,28.2598,-96.7737,1.0,1.84,11111222 
TCOON,ioos:station:TCOON:127:1,2019-07-11T00:30:00Z,28.2598,-96.7737,1.0,1.85,11111222 
TCOON,ioos:station:TCOON:127:1,2019-07-11T01:30:00Z,28.2598,-96.7737,1.0,1.78,11111222 
TCOON,ioos:station:TCOON:127:1,2019-07-11T02:30:00Z,28.2598,-96.7737,1.0,1.66,11111222 
TCOON,ioos:station:TCOON:127:1,2019-07-11T03:30:00Z,28.2598,-96.7737,1.0,1.55,11111222 
TCOON,ioos:station:TCOON:127:1,2019-07-11T04:30:00Z,28.2598,-96.7737,1.0,1.5,11111222 
TCOON,ioos:station:TCOON:127:1,2019-07-11T05:30:00Z,28.2598,-96.7737,1.0,1.48,11111222 
TCOON,ioos:station:TCOON:127:1,2019-07-11T06:30:00Z,28.2598,-96.7737,1.0,1.41,11111222 
TCOON,ioos:station:TCOON:127:1,2019-07-12T05:30:00Z,28.2598,-96.7737,1.0,1.97,11111222 
TCOON,ioos:station:TCOON:127:1,2019-07-12T06:30:00Z,28.2598,-96.7737,1.0,1.77,11111222 
TCOON,ioos:station:TCOON:127:1,2019-07-12T07:30:00Z,28.2598,-96.7737,1.0,1.25,11111222 
TCOON,ioos:station:TCOON:127:1,2019-07-12T08:30:00Z,28.2598,-96.7737,1.0,1.27,11111222 
TCOON,ioos:station:TCOON:127:1,2019-07-12T09:30:00Z,28.2598,-96.7737,1.0,1.2,11111222 
TCOON,ioos:station:TCOON:127:1,2019-07-12T10:30:00Z,28.2598,-96.7737,1.0,1.12,11111222 
TCOON,ioos:station:TCOON:127:1,2019-07-12T11:30:00Z,28.2598,-96.7737,1.0,0.94,11111222 
TCOON,ioos:station:TCOON:127:1,2019-07-12T12:30:00Z,28.2598,-96.7737,1.0,0.94,11111222 
TCOON,ioos:station:TCOON:127:1,2019-07-12T13:30:00Z,28.2598,-96.7737,1.0,0.93,11111222 
TCOON,ioos:station:TCOON:127:1,2019-07-12T14:30:00Z,28.2598,-96.7737,1.0,0.98,11111222 
TCOON,ioos:station:TCOON:127:1,2019-07-12T15:30:00Z,28.2598,-96.7737,1.0,0.9,11111222 
TCOON,ioos:station:TCOON:127:1,2019-07-12T16:30:00Z,28.2598,-96.7737,1.0,0.94,11111222 
TCOON,ioos:station:TCOON:127:1,2019-07-12T17:30:00Z,28.2598,-96.7737,1.0,1.1,11111222 
TCOON,ioos:station:TCOON:127:1,2019-07-12T18:30:00Z,28.2598,-96.7737,1.0,1.55,11111222 
TCOON,ioos:station:TCOON:127:1,2019-07-12T19:30:00Z,28.2598,-96.7737,1.0,1.74,11111222 
TCOON,ioos:station:TCOON:127:1,2019-07-12T20:30:00Z,28.2598,-96.7737,1.0,1.72,11111222 
TCOON,ioos:station:TCOON:127:1,2019-07-13T02:30:00Z,28.2598,-96.7737,1.0,0.87,11111222 
TCOON,ioos:station:TCOON:127:1,2019-07-13T03:30:00Z,28.2598,-96.7737,1.0,0.91,11111222 
TCOON,ioos:station:TCOON:127:1,2019-07-13T04:30:00Z,28.2598,-96.7737,1.0,0.94,11111222 
TCOON,ioos:station:TCOON:127:1,2019-07-13T05:30:00Z,28.2598,-96.7737,1.0,0.91,11111222 
TCOON,ioos:station:TCOON:127:1,2019-07-13T06:30:00Z,28.2598,-96.7737,1.0,0.88,11111222 
TCOON,ioos:station:TCOON:127:1,2019-07-13T07:30:00Z,28.2598,-96.7737,1.0,0.84,11111222 
TCOON,ioos:station:TCOON:127:1,2019-07-13T08:30:00Z,28.2598,-96.7737,1.0,0.84,11111222 
TCOON,ioos:station:TCOON:127:1,2019-07-13T09:30:00Z,28.2598,-96.7737,1.0,0.81,11111222 
TCOON,ioos:station:TCOON:127:1,2019-07-14T02:30:00Z,28.2598,-96.7737,1.0,0.39,11111222 
TCOON,ioos:station:TCOON:127:1,2019-07-14T03:30:00Z,28.2598,-96.7737,1.0,0.33,11111222 